TimeMST,TemperatureF,Dew PointF,Humidity,Sea Level PressureIn,VisibilityMPH,Wind Direction,Wind SpeedMPH,Gust SpeedMPH,PrecipitationIn,Events,Conditions,WindDirDegrees,DateUTC
12:15 AM,26.1,13.8,60,30.41,10.0,NNW,15.0,19.6,N/A,,Clear,340,2013-01-18 07:15:00
12:35 AM,26.2,13.6,59,30.41,10.0,NNW,15.0,-,N/A,,Clear,330,2013-01-18 07:35:00
12:55 AM,25.0,13.1,61,30.40,10.0,NNW,11.5,-,N/A,,Clear,330,2013-01-18 07:55:00
1:15 AM,24.4,12.2,60,30.40,10.0,NNW,12.7,17.3,N/A,,Clear,330,2013-01-18 08:15:00
1:35 AM,24.1,12.0,60,30.40,10.0,NNW,10.4,-,N/A,,Clear,330,2013-01-18 08:35:00
1:55 AM,24.8,12.2,59,30.40,10.0,NNW,9.2,-,N/A,,Clear,340,2013-01-18 08:55:00
2:15 AM,24.4,11.7,58,30.40,10.0,NNW,13.8,18.4,N/A,,Clear,330,2013-01-18 09:15:00
2:35 AM,24.6,11.1,57,30.40,10.0,NNW,11.5,-,N/A,,Clear,340,2013-01-18 09:35:00
2:55 AM,23.4,10.6,58,30.40,10.0,NNW,15.0,-,N/A,,Clear,330,2013-01-18 09:55:00
3:15 AM,23.2,10.6,59,30.39,10.0,NNW,13.8,-,N/A,,Clear,330,2013-01-18 10:15:00
3:55 AM,23.0,9.9,57,30.39,10.0,NNW,12.7,-,N/A,,Clear,330,2013-01-18 10:55:00
4:15 AM,22.6,8.8,55,30.39,10.0,NNW,13.8,-,N/A,,Clear,330,2013-01-18 11:15:00
4:35 AM,21.9,8.4,56,30.38,10.0,NNW,12.7,-,N/A,,Clear,330,2013-01-18 11:35:00
4:55 AM,21.4,8.2,57,30.38,10.0,NNW,11.5,20.7,N/A,,Clear,330,2013-01-18 11:55:00
5:15 AM,23.0,8.2,53,30.38,10.0,NW,15.0,-,N/A,,Clear,320,2013-01-18 12:15:00
5:35 AM,22.5,6.8,51,30.38,10.0,NNW,15.0,20.7,N/A,,Clear,330,2013-01-18 12:35:00
5:55 AM,22.8,6.6,50,30.38,10.0,NW,10.4,-,N/A,,Clear,320,2013-01-18 12:55:00
6:15 AM,23.0,7.7,52,30.37,10.0,NNW,10.4,18.4,N/A,,Clear,330,2013-01-18 13:15:00
6:35 AM,20.8,7.0,55,30.37,10.0,NNW,16.1,19.6,N/A,,Clear,340,2013-01-18 13:35:00
6:55 AM,19.2,5.7,56,30.37,10.0,NNW,20.7,-,N/A,,Clear,340,2013-01-18 13:55:00
7:35 AM,19.2,6.8,59,30.38,10.0,NNW,13.8,-,N/A,,Clear,340,2013-01-18 14:35:00
7:55 AM,20.7,5.5,52,30.39,10.0,NNW,13.8,20.7,N/A,,Clear,330,2013-01-18 14:55:00
8:15 AM,22.6,5.7,48,30.40,10.0,NW,5.8,-,N/A,,Clear,320,2013-01-18 15:15:00
8:35 AM,22.6,5.4,48,30.41,10.0,NNW,6.9,-,N/A,,Clear,330,2013-01-18 15:35:00
9:15 AM,23.7,6.6,48,30.40,10.0,NNW,4.6,-,N/A,,Clear,330,2013-01-18 16:15:00
9:35 AM,26.4,7.5,45,30.40,10.0,NNW,9.2,-,N/A,,Clear,330,2013-01-18 16:35:00
9:55 AM,30.4,7.0,37,30.41,10.0,NNW,10.4,-,N/A,,Clear,340,2013-01-18 16:55:00
10:15 AM,33.4,7.3,34,30.40,10.0,NNW,6.9,-,N/A,,Clear,340,2013-01-18 17:15:00
10:35 AM,37.6,10.0,32,30.38,10.0,NNW,5.8,-,N/A,,Clear,330,2013-01-18 17:35:00
10:55 AM,40.6,10.8,29,30.38,10.0,WSW,8.1,-,N/A,,Clear,250,2013-01-18 17:55:00
11:15 AM,43.0,9.7,26,30.36,10.0,SW,10.4,19.6,N/A,,Clear,230,2013-01-18 18:15:00
11:35 AM,44.2,9.7,24,30.35,10.0,WSW,12.7,20.7,N/A,,Clear,240,2013-01-18 18:35:00
11:55 AM,45.1,9.0,23,30.33,10.0,SW,10.4,19.6,N/A,,Clear,230,2013-01-18 18:55:00
12:15 PM,45.3,9.1,23,30.32,10.0,SW,15.0,19.6,N/A,,Clear,220,2013-01-18 19:15:00
12:35 PM,45.5,8.8,22,30.31,10.0,SSW,16.1,23.0,N/A,,Clear,210,2013-01-18 19:35:00
12:55 PM,45.9,8.4,22,30.30,10.0,SSW,11.5,19.6,N/A,,Clear,210,2013-01-18 19:55:00
1:15 PM,46.4,7.3,20,30.29,10.0,SW,13.8,23.0,N/A,,Clear,220,2013-01-18 20:15:00
1:35 PM,45.1,8.2,22,30.29,10.0,SSW,16.1,27.6,N/A,,Clear,210,2013-01-18 20:35:00
1:55 PM,45.7,8.2,22,30.28,10.0,SSW,19.6,27.6,N/A,,Clear,210,2013-01-18 20:55:00
2:15 PM,45.9,7.3,21,30.27,10.0,SW,13.8,26.5,N/A,,Clear,220,2013-01-18 21:15:00
2:35 PM,46.0,6.8,20,30.26,10.0,SW,17.3,26.5,N/A,,Clear,220,2013-01-18 21:35:00
2:55 PM,46.4,7.3,20,30.27,10.0,SW,18.4,24.2,N/A,,Clear,220,2013-01-18 21:55:00
3:15 PM,45.7,6.6,20,30.26,10.0,WSW,15.0,26.5,N/A,,Clear,240,2013-01-18 22:15:00
3:35 PM,45.3,6.8,21,30.27,10.0,SW,16.1,23.0,N/A,,Clear,230,2013-01-18 22:35:00
3:55 PM,44.6,6.4,21,30.27,10.0,SW,15.0,23.0,N/A,,Clear,230,2013-01-18 22:55:00
4:15 PM,43.5,5.9,21,30.27,10.0,WSW,16.1,26.5,N/A,,Clear,240,2013-01-18 23:15:00
4:35 PM,42.1,6.3,23,30.27,10.0,SW,18.4,23.0,N/A,,Clear,230,2013-01-18 23:35:00
4:55 PM,39.7,6.6,25,30.27,10.0,SW,16.1,21.9,N/A,,Clear,230,2013-01-18 23:55:00
5:15 PM,39.0,6.6,26,30.28,10.0,SW,13.8,24.2,N/A,,Clear,230,2013-01-19 00:15:00
5:35 PM,38.3,6.4,27,30.29,10.0,SW,13.8,19.6,N/A,,Clear,220,2013-01-19 00:35:00
5:55 PM,36.7,5.4,27,30.29,10.0,SW,11.5,17.3,N/A,,Clear,230,2013-01-19 00:55:00
6:15 PM,36.7,6.1,28,30.30,10.0,SW,10.4,23.0,N/A,,Clear,230,2013-01-19 01:15:00
6:35 PM,36.7,7.2,29,30.30,10.0,WSW,16.1,-,N/A,,Clear,240,2013-01-19 01:35:00
6:55 PM,35.8,5.7,28,30.30,10.0,West,9.2,-,N/A,,Clear,260,2013-01-19 01:55:00
7:35 PM,35.1,6.6,31,30.31,10.0,WSW,8.1,-,N/A,,Clear,250,2013-01-19 02:35:00
7:55 PM,34.9,6.6,31,30.31,10.0,WSW,10.4,-,N/A,,Clear,250,2013-01-19 02:55:00
8:35 PM,33.1,6.4,33,30.32,10.0,West,11.5,17.3,N/A,,Clear,260,2013-01-19 03:35:00
8:55 PM,34.0,7.5,33,30.32,10.0,West,6.9,-,N/A,,Clear,260,2013-01-19 03:55:00
9:15 PM,31.6,7.5,36,30.32,10.0,WSW,5.8,-,N/A,,Clear,250,2013-01-19 04:15:00
9:35 PM,29.1,8.8,43,30.31,10.0,West,4.6,-,N/A,,Clear,270,2013-01-19 04:35:00
9:55 PM,27.7,9.3,46,30.31,10.0,NW,9.2,-,N/A,,Clear,320,2013-01-19 04:55:00
10:15 PM,28.6,7.3,41,30.31,10.0,WNW,8.1,-,N/A,,Clear,300,2013-01-19 05:15:00
10:35 PM,29.5,6.4,38,30.32,10.0,West,6.9,-,N/A,,Clear,280,2013-01-19 05:35:00
10:55 PM,29.3,6.8,39,30.32,10.0,West,9.2,-,N/A,,Clear,280,2013-01-19 05:55:00
11:15 PM,27.1,7.0,43,30.32,10.0,WNW,6.9,-,N/A,,Clear,290,2013-01-19 06:15:00
11:35 PM,27.5,7.7,43,30.32,10.0,West,6.9,-,N/A,,Clear,280,2013-01-19 06:35:00
11:55 PM,26.4,5.5,41,30.32,10.0,NNW,6.9,-,N/A,,Clear,340,2013-01-19 06:55:00